星链-2646 (STARLINK-2646 )

导读

STARLINK-2646是美国SpaceX公司星链星座的成员卫星,于2021年5月26日发射升空,属于星链低轨卫星互联网星座的早期部署卫星。它运行在约550公里的近地轨道,依托相控阵天线和成熟低轨通信技术,为全球提供低延迟高速互联网接入服务,尤其覆盖传统基础设施难以抵达的偏远区域。作为星链星座规模化部署的一环,它助力填补全球数字鸿沟,推动全球互联网覆盖进程。

基本信息
目录编号:
48642
目录名称:
STARLINK-2646
国际标识:
2021-044E
轨道中心:
EARTH
卫星名称:
星链-2646
卫星全名:
星链-2646 (STARLINK-2646 )
卫星状态:
在轨 (已飞行1849 天)
发射日期:
2021-05-26 UTC
国别 :
美国 (US)
星等 :
--
轨道信息
数据来源 国际轨道数据
星历时间: 2026-06-18T06:29:18+0800
16小时前
查看轨道信息
半长轴: 6848.885km
偏心率: 0.0001323
轨道倾角: 53.160°
近地点辐角 78.366°
升交点赤经 7.574°
平近点角 281.750°
近地点: 469.841km
远地点: 471.655km
周期: 94.013分钟
每日圈数: 15.316976
详细信息
固有亮度:
5
最大亮度:
2.5
卫星平台:
Starlink V1.0
覆盖范围:
全球
运营商:
太空探索技术公司
运营商所在国:
美国
制造商(研发单位):
太空探索技术公司
制造商所在国:
美国
使用方式:
暂无
卫星简介
星链(Starlink)计划是由太空探索技术公司(SpaceX)提出的一个巨型低轨卫星互联网星座项目,计划在2019年至2024年间在太空搭建由约1.2万颗卫星组成的“星链”网络,其中1584颗将部署在地球上空550千米处的近地轨道,并从2020年开始工作。该卫星仍在工作。
2D轨道图
3D轨道图
轨道高度分析图
轨道倾角分析图
轨道综合分析图
查看轨道综合分析图